{"data":{"norad_id":64765,"epoch":"2026-09-20T20:46:49.124640Z","epoch_age_seconds":95963,"freshness":"FRESH","line1":"1 64765U 25147L   26263.86584635  .00015692  00000+0  47468-3 0  9995","line2":"2 64765  53.1584  51.9528 0000666  93.6904 266.4175 15.34393775 68692","mean_motion":15.34393775,"eccentricity":6.66e-5,"inclination_deg":53.1584,"raan_deg":51.9528,"arg_perigee_deg":93.6904,"mean_anomaly_deg":266.4175,"bstar":0.00047468,"rev_number":6869,"period_min":93.848138819515,"perigee_km":462.26614108928,"apogee_km":463.17734347375,"semimajor_km":6840.8587422815,"source":"CELESTRAK","updated_at":"2026-09-21T09:00:35.438158Z"}}